{"data":{"norad_id":65639,"intl_designator":"2025-210T","name":"STARLINK-35127","alt_names":[],"object_type":"PAYLOAD","status":"ACTIVE","operator":null,"country":"US","launch_date":"2025-09-18","launch_site_code":"AFETR","launch_vehicle":null,"mission":null,"orbit_class":"UNKNOWN","rcs_meters":null,"size_class":null,"mass_kg":null,"dimensions":null,"purposes":["comms"],"wikipedia_slug":null,"has_3d_model":false,"image_url":null,"decayed_at":null,"tle_current":{"epoch":"2026-05-25T03:49:02.178336Z","epoch_age_seconds":75450,"freshness":"FRESH","line1":"1 65639U 25210T   26145.15905299  .00023684  00000+0  70975-3 0  9990","line2":"2 65639  53.1585 310.8398 0000749  65.3196 294.7884 15.34406257 39450","mean_motion":15.34406257,"eccentricity":7.49e-5,"inclination_deg":53.1585,"raan_deg":310.8398,"arg_perigee_deg":65.3196,"mean_anomaly_deg":294.7884,"bstar":0.00070975,"rev_number":3945,"period_min":93.847375389059,"perigee_km":462.17226560663,"apogee_km":463.19702068877,"semimajor_km":6840.8216431477,"source":"CELESTRAK","updated_at":"2026-05-25T13:38:20.884650Z"}}}